STARLINK-1043

Last updated on Thu Dec 12 2019 00:02:03 GMT+0000 (Coordinated Universal Time)

1 44748U 19074AM 19345.58335648 -.00074164 00000-0 -20122-2 0 9995 2 44748 53.0063 23.8921 0001232 60.5484 329.4228 15.37247997 4701

Satellite not in orbit

STARLINK-1043